This is the latest recevied weather packets stored in our database for station/object DD3UTS-13. If no packets are shown the sender has not sent any weather packets the latest 10 day(s).
| Time | Temp. | Humidity | Pressure | Rain* | Wind** | Luminosity | Snow |
|---|---|---|---|---|---|---|---|
| 1777527332 | 3.33° C | 53% | 1029.8 hPa | 0 mm | - | 102 W/m² | - |
| 1777527032 | 3.33° C | 54% | 1029.8 hPa | 0 mm | - | 97 W/m² | - |
| 1777526731 | 2.78° C | 59% | 1029.7 hPa | 0 mm | - | 88 W/m² | - |
| 1777526431 | 2.78° C | 59% | 1029.7 hPa | 0 mm | - | 84 W/m² | - |
| 1777526132 | 2.78° C | 56% | 1029.7 hPa | 0 mm | - | 79 W/m² | - |
| 1777525832 | 2.78° C | 55% | 1029.7 hPa | 0 mm | - | 75 W/m² | - |
| 1777525532 | 2.22° C | 53% | 1029.7 hPa | 0 mm | - | 70 W/m² | - |
| 1777525233 | 2.22° C | 54% | 1029.7 hPa | 0 mm | - | 63 W/m² | - |
| 1777524932 | 2.22° C | 53% | 1029.5 hPa | 0 mm | - | 58 W/m² | - |
| 1777524632 | 2.22° C | 52% | 1029.5 hPa | 0 mm | - | 53 W/m² | - |
| 1777524332 | 2.22° C | 52% | 1029.6 hPa | 0 mm | - | 49 W/m² | - |
| 1777524032 | 2.22° C | 52% | 1029.5 hPa | 0 mm | - | 44 W/m² | - |
| 1777523732 | 2.22° C | 52% | 1029.4 hPa | 0 mm | - | 42 W/m² | - |
| 1777523432 | 1.67° C | 52% | 1029.4 hPa | 0 mm | - | 36 W/m² | - |
| 1777523132 | 1.67° C | 53% | 1029.4 hPa | 0 mm | - | 34 W/m² | - |
| 1777522832 | 1.67° C | 54% | 1029.4 hPa | 0 mm | - | 28 W/m² | - |
| 1777522532 | 1.67° C | 54% | 1029.4 hPa | 0 mm | - | 26 W/m² | - |
| 1777522232 | 1.67° C | 54% | 1029.3 hPa | 0 mm | - | 21 W/m² | - |
| 1777521932 | 1.11° C | 55% | 1029.3 hPa | 0 mm | - | 14 W/m² | - |
| 1777521632 | 1.11° C | 55% | 1029.2 hPa | 0 mm | - | 12 W/m² | - |
| 1777521332 | 0.56° C | 57% | 1029.2 hPa | 0 mm | - | 8 W/m² | - |
| 1777521031 | 0.56° C | 57% | 1029.2 hPa | 0 mm | - | 4 W/m² | - |
| 1777520731 | 0.56° C | 58% | 1029.2 hPa | 0 mm | - | 1 W/m² | - |
| 1777520431 | 0.56° C | 58% | 1029.2 hPa | 0 mm | - | 0 W/m² | - |
| 1777520132 | 0.56° C | 58% | 1029.1 hPa | 0 mm | - | 0 W/m² | - |
* Rain latest 24 hours (hover to see other rain measurements)
** Current wind speed in m/s (hover to see current wind gust speed)